#timestamp,LO_Frequency,Hit,StdDev 
1636880415.0,286046999.7,N
1636880415.9,286046999.7,N
1636880435.8,286047000.3,N
1636880455.6,286047000.6,N
1636880475.4,286047000.5,N
1636880495.3,286047000.1,N
1636880515.1,286047002.3,Y
1636880535.8,286047002.5,P
1636880555.7,286047002.8,N
1636880575.5,286047002.0,N
1636880595.4,286047002.6,N
1636880615.2,286047002.7,N
1636880635.0,286047000.0,N
1636880635.9,286047000.0,N
1636880655.8,286046999.9,N
1636880675.6,286047002.5,N
1636880695.4,286047001.8,N
1636880715.3,286047002.4,N
1636880735.1,286047002.5,N
1636880755.9,286047000.5,N
1636880775.7,286047000.1,N
1636880795.5,286047002.8,N
1636880815.4,286046999.8,N
1636880865.2,286047001.9,E
1636880875.2,286047000.2,N
1636880895.9,286047001.0,P
1636880915.7,286046998.1,P
1636880935.6,286046996.6,N
1636880955.4,286046996.6,N
1636880975.2,286046996.8,N
1636880995.1,286046998.6,N
1636880996.0,286046998.6,N
1636881015.8,286046998.6,N
1636881035.7,286046998.9,N
1636881055.5,286047000.5,N
1636881075.3,286046998.3,N
1636881095.2,286046999.5,N
1636881115.0,286046998.6,N
1636881115.9,286046998.6,N
1636881135.7,286046998.6,N
1636881155.6,286047001.1,N
1636881175.4,286047001.1,N
1636881195.3,286046999.3,N
1636881215.1,286046999.1,N
1636881216.0,286046999.1,N
1636881235.8,286046998.2,N
1636881255.7,286047000.8,N
1636881275.5,286047000.3,N
1636881295.4,286046998.7,N
1636881315.2,286047001.1,N
1636881335.0,286046998.7,N
1636881335.9,286046998.7,N
1636881355.8,286046998.1,N
1636881375.6,286047000.8,N
1636881395.4,286047001.0,N
1636881415.3,286047000.7,N
1636881435.1,286047000.8,N
1636881455.9,286047001.1,N
1636881475.7,286047000.4,N
1636881495.5,286047000.7,N
1636881515.4,286047001.1,N
1636881535.2,286047001.2,N
1636881555.0,286046998.7,N
1636881555.9,286046998.7,N
1636881575.8,286047000.7,N
1636881595.6,286047000.8,N
1636881615.5,286047000.9,N
1636881635.3,286047000.6,N
1636881655.1,286047000.2,N
1636881675.9,286047000.6,N
1636881695.7,286047000.6,N
1636881715.6,286047002.7,N
1636881735.4,286047000.0,N
1636881755.2,286047000.1,N
1636881775.1,286047000.3,N
1636881776.0,286047000.3,N
1636881795.8,286047000.4,N
1636881815.6,286047000.4,N
1636881835.5,286047000.7,N
1636881855.3,286047000.6,N
1636881875.2,286047000.8,N
1636881895.9,286046999.8,N
1636881915.7,286047002.4,N
1636881935.6,286047002.5,Y
1636881955.4,286047000.7,P
1636881975.2,286047001.0,P
1636881995.1,286047001.0,P
1636881996.0,286047001.0,Y
1636882015.8,286046998.8,P
1636882035.7,286046998.3,N
1636882055.5,286046998.5,N
1636882075.3,286047000.6,N
1636882095.2,286047000.6,N
1636882115.0,286047001.2,N
1636882115.9,286047001.2,N
1636882135.8,286046998.8,N
1636882155.6,286047000.8,N
1636882175.4,286046998.6,N
1636882195.3,286047001.1,N
1636882215.1,286046999.9,N
1636882235.8,286047000.6,N
1636882255.7,286047000.8,N
1636882275.5,286047002.8,N
1636882295.4,286046998.6,N
1636882315.2,286047000.7,N
1636882335.1,286047000.6,N
1636882336.0,286047000.6,N
1636882355.8,286047000.4,N
1636882375.6,286047001.1,N
1636882395.5,286046998.2,N
1636882415.3,286046998.7,N
1636882435.1,286046999.1,N
1636882455.9,286046999.2,N
1636882475.7,286046999.2,N
1636882495.6,286046998.4,N
1636882515.4,286046996.8,N
1636882535.2,286046995.6,Y
1636882555.1,286046997.8,P
1636882556.0,286046997.8,N
1636882575.8,286046997.0,P
1636882595.6,286046996.8,Y
1636882615.5,286046999.0,P
1636882635.3,286047000.7,N
1636882655.2,286047000.1,N
1636882675.9,286047000.5,N
1636882695.7,286047000.5,N
1636882715.6,286046998.2,N
1636882735.4,286047000.4,N
1636882755.2,286047000.4,N
1636882775.1,286047000.6,N
1636882776.0,286047000.6,N
1636882795.8,286047000.1,N
1636882815.7,286047000.3,N
1636882835.5,286047000.2,N
1636882855.3,286046999.8,N
1636882875.2,286047002.4,N
1636882895.0,286047002.4,N
1636882895.9,286047002.4,N
1636882915.7,286046999.8,N
1636882935.6,286047000.4,N
1636882955.4,286047000.5,N
1636882975.3,286047001.0,N
1636882995.1,286047001.0,N
1636882996.0,286047001.0,N
1636883015.8,286046998.1,N
1636883035.7,286047000.8,N
1636883055.5,286047000.7,N
1636883075.3,286046998.6,N
1636883095.2,286047000.0,N
1636883115.0,286047000.7,N
1636883115.9,286047000.7,N
1636883135.8,286047001.2,N
1636883155.6,286047000.8,N
1636883175.4,286046999.0,N
1636883195.3,286046997.8,N
1636883215.1,286046999.3,N
1636883235.9,286046998.9,N
1636883255.7,286046999.4,N
1636883275.5,286046996.6,Y
1636883295.4,286046995.3,P
1636883315.2,286046995.3,N
1636883335.1,286046995.2,N
1636883336.0,286046995.2,N
1636883355.8,286046995.4,N
1636883375.6,286046995.2,N
1636883395.5,286046996.2,N
1636883415.3,286046995.5,N
1636883435.1,286046995.1,Y
1636883455.9,286047000.4,P
1636883475.7,286047000.3,N
1636883495.6,286047000.3,N
1636883515.4,286047000.4,N
1636883535.2,286047001.0,N
1636883555.1,286046998.3,N
1636883556.0,286046998.3,N
1636883575.8,286046998.8,N
1636883595.6,286047001.2,N
1636883615.5,286046998.7,N
1636883635.3,286046999.0,N
1636883655.2,286046998.5,N
1636883675.9,286046998.3,N
1636883695.7,286046997.1,N
1636883715.6,286046998.7,N
1636883735.4,286046998.4,N
1636883755.2,286046999.4,N
1636883775.1,286046999.1,N
1636883776.0,286046999.1,N
1636883795.8,286046998.7,N
1636883815.7,286046998.9,N
1636883835.5,286047001.2,N
1636883855.3,286047001.0,N
1636883875.2,286046998.7,N
1636883895.0,286047000.8,N
1636883895.9,286047000.8,N
1636883915.7,286046998.3,N
1636883935.6,286047000.8,N
1636883955.4,286047000.7,N
1636883975.3,286047001.0,N
1636883995.1,286046999.9,N
1636883996.0,286046999.9,N
